TimeEST,TemperatureF,Dew PointF,Humidity,Sea Level PressureIn,VisibilityMPH,Wind Direction,Wind SpeedMPH,Gust SpeedMPH,PrecipitationIn,Events,Conditions,WindDirDegrees,DateUTC
12:15 AM,33.8,32.2,94,30.54,5.0,ESE,3.5,-,N/A,,Clear,120,2012-11-18 05:15:00
12:35 AM,34.7,32.5,92,30.54,5.0,ESE,3.5,-,N/A,,Clear,110,2012-11-18 05:35:00
12:55 AM,33.8,32.0,93,30.54,5.0,ESE,3.5,-,N/A,,Clear,110,2012-11-18 05:55:00
1:15 AM,34.2,32.4,93,30.53,5.0,SE,3.5,-,N/A,,Clear,130,2012-11-18 06:15:00
1:35 AM,32.9,32.2,97,30.53,4.0,Calm,Calm,-,N/A,,Clear,0,2012-11-18 06:35:00
1:55 AM,32.2,32.0,99,30.53,3.0,Calm,Calm,-,N/A,,Clear,0,2012-11-18 06:55:00
2:15 AM,32.0,32.0,100,30.53,2.5,Calm,Calm,-,N/A,,Clear,0,2012-11-18 07:15:00
2:34 AM,32.0,32.0,100,30.52,2.5,Calm,Calm,-,N/A,,Clear,0,2012-11-18 07:34:00
2:55 AM,31.8,31.8,100,30.52,3.0,Calm,Calm,-,N/A,,Clear,0,2012-11-18 07:55:00
3:15 AM,31.8,31.8,100,30.52,3.0,Calm,Calm,-,N/A,,Clear,0,2012-11-18 08:15:00
3:35 AM,30.2,30.2,100,30.52,2.5,Calm,Calm,-,N/A,,Clear,0,2012-11-18 08:35:00
3:55 AM,30.4,30.4,100,30.52,2.0,Calm,Calm,-,N/A,,Mostly Cloudy,0,2012-11-18 08:55:00
4:15 AM,36.3,36.3,100,30.52,0.2,SSE,4.6,-,N/A,Fog,Fog,160,2012-11-18 09:15:00
4:35 AM,36.5,36.5,100,30.51,0.2,SSE,4.6,-,N/A,Fog,Fog,150,2012-11-18 09:35:00
4:55 AM,36.5,36.5,100,30.51,0.2,SSE,4.6,-,N/A,Fog,Fog,150,2012-11-18 09:55:00
5:15 AM,36.7,36.7,100,30.52,0.2,SE,4.6,-,N/A,Fog,Fog,140,2012-11-18 10:15:00
5:35 AM,37.0,37.0,100,30.52,0.2,SE,3.5,-,N/A,Fog,Fog,140,2012-11-18 10:35:00
6:15 AM,37.6,37.6,100,30.52,0.8,SE,8.1,-,N/A,,Overcast,140,2012-11-18 11:15:00
6:35 AM,38.1,38.1,100,30.52,1.0,SSE,6.9,-,N/A,,Overcast,150,2012-11-18 11:35:00
6:55 AM,38.5,38.5,100,30.52,1.5,SSE,5.8,-,N/A,,Overcast,150,2012-11-18 11:55:00
7:15 AM,38.7,38.7,100,30.52,1.8,SSE,3.5,-,N/A,,Overcast,150,2012-11-18 12:15:00
7:35 AM,39.2,39.2,100,30.52,1.5,SSE,6.9,-,N/A,,Overcast,150,2012-11-18 12:35:00
7:55 AM,39.2,39.2,100,30.52,1.0,SE,5.8,-,N/A,,Overcast,140,2012-11-18 12:55:00
8:15 AM,39.7,39.7,100,30.52,1.0,ESE,3.5,-,N/A,,Overcast,120,2012-11-18 13:15:00
8:35 AM,40.1,40.1,100,30.52,1.0,SE,3.5,-,N/A,,Overcast,130,2012-11-18 13:35:00
8:55 AM,40.1,40.1,100,30.52,1.0,SE,5.8,-,N/A,,Overcast,130,2012-11-18 13:55:00
9:15 AM,40.6,40.6,100,30.52,1.2,SE,4.6,-,N/A,,Overcast,140,2012-11-18 14:15:00
9:35 AM,41.5,41.5,100,30.52,1.5,SSE,5.8,-,N/A,,Overcast,150,2012-11-18 14:35:00
9:55 AM,41.5,41.5,100,30.51,1.8,ESE,6.9,-,N/A,,Mostly Cloudy,120,2012-11-18 14:55:00
10:15 AM,43.5,43.5,100,30.52,2.5,ESE,5.8,-,N/A,,Scattered Clouds,120,2012-11-18 15:15:00
10:35 AM,44.1,42.6,95,30.52,3.0,ESE,4.6,-,N/A,,Clear,110,2012-11-18 15:35:00
10:55 AM,45.5,42.1,88,30.51,4.0,ESE,4.6,-,N/A,,Clear,110,2012-11-18 15:55:00
11:15 AM,45.5,41.9,87,30.51,4.0,SE,3.5,-,N/A,,Clear,130,2012-11-18 16:15:00
11:35 AM,46.4,42.1,85,30.50,5.0,East,3.5,-,N/A,,Haze,100,2012-11-18 16:35:00
11:55 AM,47.7,41.5,79,30.49,5.0,East,3.5,-,N/A,,Haze,100,2012-11-18 16:55:00
12:15 PM,47.3,40.6,78,30.48,5.0,Calm,Calm,-,N/A,,Haze,0,2012-11-18 17:15:00
12:35 PM,50.0,41.0,71,30.47,7.0,Calm,Calm,-,N/A,,Clear,0,2012-11-18 17:35:00
12:55 PM,51.8,40.3,65,30.46,7.0,East,3.5,-,N/A,,Clear,100,2012-11-18 17:55:00
1:15 PM,53.4,36.9,53,30.46,10.0,SE,5.8,-,N/A,,Clear,130,2012-11-18 18:15:00
1:34 PM,54.1,35.4,49,30.45,10.0,ESE,8.1,-,N/A,,Clear,110,2012-11-18 18:34:00
1:55 PM,55.2,32.5,42,30.44,10.0,SE,8.1,-,N/A,,Clear,140,2012-11-18 18:55:00
2:15 PM,55.6,32.2,41,30.44,10.0,ESE,5.8,-,N/A,,Clear,120,2012-11-18 19:15:00
2:35 PM,55.4,32.2,41,30.43,10.0,SE,6.9,-,N/A,,Clear,140,2012-11-18 19:35:00
2:55 PM,55.8,31.6,40,30.43,10.0,East,3.5,-,N/A,,Clear,100,2012-11-18 19:55:00
3:15 PM,55.8,30.6,38,30.43,10.0,SE,5.8,-,N/A,,Clear,140,2012-11-18 20:15:00
3:35 PM,55.9,30.6,38,30.42,10.0,SE,5.8,-,N/A,,Clear,130,2012-11-18 20:35:00
3:55 PM,55.6,29.5,37,30.42,10.0,ESE,5.8,-,N/A,,Clear,120,2012-11-18 20:55:00
4:15 PM,55.2,28.9,37,30.42,10.0,SE,4.6,-,N/A,,Clear,130,2012-11-18 21:15:00
4:35 PM,53.6,29.5,40,30.42,10.0,ESE,4.6,-,N/A,,Clear,120,2012-11-18 21:35:00
4:55 PM,51.6,30.4,44,30.42,10.0,ESE,5.8,-,N/A,,Clear,120,2012-11-18 21:55:00
5:15 PM,49.5,30.9,49,30.43,10.0,East,6.9,-,N/A,,Clear,100,2012-11-18 22:15:00
5:35 PM,47.7,32.0,55,30.43,10.0,ESE,5.8,-,N/A,,Clear,110,2012-11-18 22:35:00
5:55 PM,46.8,32.7,58,30.43,10.0,ESE,5.8,-,N/A,,Clear,110,2012-11-18 22:55:00
6:15 PM,46.4,33.4,61,30.43,10.0,ESE,4.6,-,N/A,,Clear,120,2012-11-18 23:15:00
6:35 PM,44.4,34.0,67,30.43,10.0,ESE,4.6,-,N/A,,Clear,120,2012-11-18 23:35:00
6:55 PM,43.7,34.2,69,30.43,10.0,ESE,4.6,-,N/A,,Clear,120,2012-11-18 23:55:00
7:15 PM,43.2,34.5,72,30.43,10.0,ESE,4.6,-,N/A,,Clear,120,2012-11-19 00:15:00
7:35 PM,43.5,34.2,70,30.43,10.0,ESE,5.8,-,N/A,,Clear,120,2012-11-19 00:35:00
7:55 PM,43.9,33.8,68,30.43,10.0,ESE,5.8,-,N/A,,Clear,120,2012-11-19 00:55:00
8:15 PM,43.0,33.1,68,30.43,10.0,ESE,4.6,-,N/A,,Clear,120,2012-11-19 01:15:00
8:35 PM,42.3,33.1,70,30.43,10.0,SE,4.6,-,N/A,,Clear,130,2012-11-19 01:35:00
8:55 PM,43.0,33.4,69,30.43,10.0,SE,4.6,-,N/A,,Clear,140,2012-11-19 01:55:00
9:15 PM,42.8,33.4,70,30.43,10.0,SE,4.6,-,N/A,,Clear,140,2012-11-19 02:15:00
9:35 PM,40.6,33.1,74,30.43,10.0,ESE,4.6,-,N/A,,Clear,120,2012-11-19 02:35:00
9:55 PM,41.5,33.4,73,30.43,10.0,SE,4.6,-,N/A,,Clear,130,2012-11-19 02:55:00
10:15 PM,41.0,33.4,74,30.42,10.0,SE,5.8,-,N/A,,Clear,130,2012-11-19 03:15:00
10:35 PM,40.5,33.6,77,30.42,10.0,SE,3.5,-,N/A,,Clear,130,2012-11-19 03:35:00
10:55 PM,39.4,33.4,79,30.41,10.0,ESE,3.5,-,N/A,,Clear,120,2012-11-19 03:55:00
11:15 PM,38.7,33.8,83,30.41,10.0,SE,3.5,-,N/A,,Clear,130,2012-11-19 04:15:00
11:35 PM,37.8,33.4,84,30.40,10.0,ESE,3.5,-,N/A,,Clear,120,2012-11-19 04:35:00